Weather Roundup
Issued by NWS

Home | Current Version | Previous Version | Text Only | Print | Product List | Glossary On
Versions: 1 2 3 4 5 6 7 8 9 10 11 12 13 14 15 16 17 18 19 20 21 22 23 24 25 26 27 28 29 30 31 32 33 34 35 36 37 38 39 40 41 42 43 44 45 46 47 48 49 50
000
NZUS93 KARX 170610
HRRWXR

CURRENT HOURLY OBSERVATIONS ACROSS
MUCH OF THE UPPER MISSISSIPPI VALLEY
NATIONAL WEATHER SERVICE LA CROSSE WI
1200 AM CST SUN DEC 17 2017


...SOUTHEAST MINNESOTA...


CITY           SKY/WX    TMP DP  RH WIND       PRES   REMARKS
ROCHESTER      CLEAR     22  20  92 NE8       30.04S WCI  12
ROCHESTER/MAYO FAIR      25  22  89 NE5       30.07R WCI  19
WINONA         CLOUDY    30  28  93 E5        30.11S WCI  25
AUSTIN         CLOUDY    23  19  86 CALM      30.04R
ALBERT LEA     PTCLDY    23  19  86 NE5       30.05S WCI  17
DODGE CENTER   CLEAR     21  19  93 NE5       30.05S WCI  15
PRESTON        FOG       24  23  95 E5        30.05S VSB 1   WCI  18
OWATONNA       CLOUDY    23  21  93 N5        30.05F WCI  17
FARIBAULT      CLEAR     21  19  93 CALM      30.08R
$$

...ELSEWHERE IN MINNESOTA...


CITY           SKY/WX    TMP DP  RH WIND       PRES   REMARKS
MINNEAPOLIS    CLOUDY    23  18  81 NE3       30.09F
INTNL FALLS    CLOUDY    20  17  88 VRB3      30.04F
DULUTH         CLOUDY    19  14  81 CALM      30.09S
RED WING       CLOUDY    23  16  74 E3        30.09S
REDWOOD FALLS  CLOUDY    28  25  88 NE3       30.08S
MANKATO        CLOUDY    27  24  89 NE9       30.06F FOG     WCI  18
WORTHINGTON    CLOUDY    25  23  93 N10       30.04F FOG     WCI  15
FAIRMONT       CLOUDY    27  26  96 NE9       30.06S FOG     WCI  18
$$

...SOUTHWEST WISCONSIN...


CITY           SKY/WX    TMP DP  RH WIND       PRES   REMARKS
LA CROSSE      CLOUDY    29  26  89 E3        30.10R
PRAIRIE DU CHI CLOUDY    32  27  83 E7        30.07F WCI  25
BOSCOBEL       CLOUDY    32  28  85 NE5       30.08F WCI  27
LONE ROCK      CLOUDY    31  28  89 E7        30.09F WCI  24
PLATTEVILLE    CLOUDY    31  31 100 E13       30.04F WCI  22
FORT MC COY    CLOUDY    26  24  91 E6        30.11R WCI  19
CAMP DOUGLAS   CLOUDY    26  22  83 E6        30.10F WCI  20
MAUSTON-NEW LI CLOUDY    28  23  83 E3        30.09F
VIROQUA        CLOUDY    27  27 100 CALM      30.06S
WIS DELLS      CLOUDY    28  24  84 NE6       30.09F WCI  21
$$

...ELSEWHERE IN WISCONSIN...


CITY           SKY/WX    TMP DP  RH WIND       PRES   REMARKS
MILWAUKEE      CLOUDY    35  32  88 E9        30.10F WCI  28
MADISON        CLOUDY    30  27  88 E6        30.09F WCI  24
GREEN BAY      CLOUDY    28  22  78 NE8       30.17R WCI  20
EAU CLAIRE     CLOUDY    24  22  91 NE7       30.10F WCI  16
BLACK RVR FLS  CLOUDY    26  21  83 CALM      30.10F
MEDFORD        CLOUDY    21  19  89 E6        30.10F WCI  14
WAUSAU         CLOUDY    22  19  89 E8        30.12S WCI  12
WIS RAPIDS     CLOUDY    24  19  81 E7        30.12F WCI  16
MARSHFIELD     CLOUDY    23  20  88 E9        30.08F WCI  13
RICE LAKE      CLOUDY    22  19  89 CALM      30.13F
$$

...NORTHEAST IOWA...


CITY           SKY/WX    TMP DP  RH WIND       PRES   REMARKS
WATERLOO       CLOUDY    26  22  84 NE8       30.02S WCI  18
DUBUQUE        CLOUDY    29  28  96 NE12      30.03F FOG     WCI  19
DECORAH        CLOUDY    28  28 100 E8        30.04S FOG     WCI  20
MASON CITY     CLEAR     21  19  92 N6        30.05R WCI  13
CHARLES CITY   CLOUDY    27  27 100 E9        30.03S WCI  17
OELWEIN        CLOUDY    28  28 100 E12       30.03F WCI  18
$$

...ELSEWHERE IN IOWA...


CITY           SKY/WX    TMP DP  RH WIND       PRES   REMARKS
DES MOINES     CLOUDY    36  26  67 NE8       29.98S WCI  30
IOWA CITY      CLOUDY    28  22  78 CALM      30.03R
FORT DODGE     CLOUDY    27  25  92 N6        30.02S WCI  20
MARSHALLTOWN   CLOUDY    28  23  81 NE5       29.99R WCI  23
CEDAR RAPIDS   CLOUDY    31  25  78 E12       29.99S WCI  22
$$

...NORTHERN ILLINOIS...


CITY           SKY/WX    TMP DP  RH WIND       PRES   REMARKS
CHICAGO-OHARE  CLOUDY    32  29  88 N6        30.04F WCI  26
CHICAGO-MIDWAY CLOUDY    35  32  88 NE5       30.04F WCI  31
MOLINE         CLOUDY    26  20  77 E3        30.01S
ROCKFORD       CLOUDY    28  26  92 NE7       30.06F WCI  21
PEORIA         CLOUDY    35  26  69 S6        30.03S WCI  30
$$

NOTE: "FAIR" INDICATES FEW OR NO CLOUDS BELOW 12,000 FEET WITH NO
SIGNIFICANT WEATHER AND/OR OBSTRUCTIONS TO VISIBILITY. WIND
SPEEDS ARE IN MILES-PER-HOUR.




USA.gov is the U.S. government's official web portal to all federal, state and local government web resources and services.